Location: McFarlands Corners
(41.4117°N, 81.3382°W)
Time: 20:31:41
(UTC+00:00)

SR - Pass Details

Date: 20 February 2026
Orbit: 572 x 848 km, 66.7° (Epoch: 8 March)

Event Time Altitude Azimuth Distance (km) Brightness Sun altitude
Rises 09:17:38 0° 211° (SSW) 2,764 - -33.4°
Reaches altitude 10° 09:19:49 10° 212° (SSW) 1,876 - -33.0°
Maximum altitude 09:24:00 81° 299° (WNW) 599 - -32.3°
Exits shadow 09:27:06 19° 27° (NNE) 1,460 ? -31.7°
Drops below altitude 10° 09:28:24 10° 28° (NNE) 1,970 ? -31.5°
Sets 09:30:44 0° 30° (NNE) 2,915 ? -31.0°
